GOTSKAYA Weather Reports


time (UTC)temp
C
wind
direction
speed
KPH
gust
KPH
rain 1hr
cm
rain 24hr
cm
rain mn
cm
humidity
%
barometer
mb
20260504081526 11 248 6.4 20.9 0.00 0.00 0.00 50 1007.5
20260504044542 8 210 9.7 19.3 0.00 0.00 0.00 53 1006.5
20260504043042 8 203 8.0 20.9 0.00 0.00 0.00 53 1006.4
20260504041534 8 194 6.4 22.5 0.00 0.00 0.00 53 1006.8
20260504040032 8 78 6.4 17.7 0.00 0.00 0.00 54 1007.0
20260504034530 8 223 6.4 20.9 0.00 0.00 0.00 54 1007.1
20260504033028 8 5 6.4 24.1 0.00 0.00 0.00 54 1007.3
20260504031626 8 215 4.8 30.6 0.00 0.00 0.00 56 1007.7
20260504030026 7 215 4.8 14.5 0.00 0.00 0.00 56 1007.8
20260504024521 7 234 3.2 16.1 0.00 0.00 0.00 56 1008.0
20260504023020 7 64 4.8 14.5 0.00 0.00 0.00 56 1008.2
20260504021517 7 226 4.8 14.5 0.00 0.00 0.00 56 1008.4
20260504020016 7 219 3.2 14.5 0.00 0.00 0.00 56 1008.3
20260504014519 7 137 3.2 14.5 0.00 0.00 0.00 56 1008.6
20260504013029 7 236 1.6 19.3 0.00 0.00 0.00 56 1008.8
20260504011512 8 41 3.2 14.5 0.00 0.00 0.00 55 1008.9
20260504010009 8 205 3.2 22.5 0.00 0.00 0.00 54 1009.0
20260504004508 8 188 3.2 16.1 0.00 0.00 0.00 54 1009.2
20260504003007 8 64 6.4 25.7 0.00 0.00 0.00 54 1009.2
20260504001502 8 22 3.2 19.3 0.00 0.00 0.00 54 1009.4
20260504000120 7 40 4.8 20.9 0.00 0.00 0.00 54 1009.4
20260503234605 7 89 3.2 17.7 0.00 0.00 0.00 53 1009.6
20260503233102 7 61 4.8 25.7 0.00 0.00 0.00 53 1009.8
20260503231553 7 259 4.8 16.1 0.00 0.00 0.00 52 1010.0
20260503230109 7 32 3.2 20.9 0.00 0.00 0.00 52 1010.2
20260503224551 7 210 4.8 16.1 0.00 0.00 0.00 52 1010.6
20260503223045 7 102 3.2 14.5 0.00 0.00 0.00 52 1010.9
20260503221543 7 236 3.2 12.9 0.00 0.00 0.00 52 1011.0
20260503220046 7 128 1.6 12.9 0.00 0.00 0.00 52 1011.2
20260503214539 7 291 1.6 9.7 0.00 0.00 0.00 52 1011.5
20260503213034 8 239 3.2 9.7 0.00 0.00 0.00 52 1011.8
20260503211532 8 244 1.6 16.1 0.00 0.00 0.00 51 1012.0
20260503210030 8 122 1.6 14.5 0.00 0.00 0.00 51 1012.1
20260503204529 8 196 3.2 14.5 0.00 0.00 0.00 51 1012.2
20260503203043 8 240 1.6 11.3 0.00 0.00 0.00 50 1012.3
20260503201530 8 213 3.2 16.1 0.00 0.00 0.00 49 1012.4
20260503200026 9 250 1.6 11.3 0.00 0.00 0.00 48 1012.4
20260503194535 9 206 1.6 14.5 0.00 0.00 0.00 47 1012.6
20260503193020 9 180 1.6 16.1 0.00 0.00 0.00 46 1012.7
20260503191520 10 263 1.6 20.9 0.00 0.00 0.00 45 1012.7
20260503190028 10 360 4.8 22.5 0.00 0.00 0.00 44 1012.9
20260503184523 10 198 6.4 20.9 0.00 0.00 0.00 43 1013.0
20260503183017 10 202 8.0 27.4 0.00 0.00 0.00 42 1013.1
20260503181513 10 315 3.2 24.1 0.00 0.00 0.00 43 1013.4
20260503180013 10 208 3.2 29.0 0.00 0.00 0.00 43 1013.6
20260503174512 11 312 4.8 19.3 0.00 0.00 0.00 43 1013.8
20260503173012 11 329 3.2 16.1 0.00 0.00 0.00 41 1013.9
20260503171509 11 163 4.8 17.7 0.00 0.00 0.00 40 1014.1
20260503140154 16 254 8.0 19.3 0.00 0.03 0.00 27 1014.5
20260503130149 15 212 3.2 20.9 0.00 0.15 0.00 31 1015.0